ONEWEB-0345 (49211 NORAD) Tracking and Keplerian Element Data

This shows tracking and keplerian element data for the satellite.

Feedback or suggestion? Click here.




ElementValue
Catalog49211
NameONEWEB-0345
Epoch Orbit355
Epoch Day300.58334491
Epoch Year2021
RAAN313.0961
Inclination87.1993
Eccentricity0.0021672
Argument of Perigee138.0388
Mean Anonmoly147.4932
Mean Motion14.87100187
Decay Rate-0.00029605
L11 49211U 21083AB 21300.58334491 -.00029605 00000-0 -33060-2 0 9992
L22 49211 87.1993 313.0961 0021672 138.0388 147.4932 14.87100187 3558

Live tracking and technical data element details for ONEWEB-0345 (NORAD 49211). ONEWEB-0345 can be tracked NOW for your location showing map with azimuth and elevation plus other details from your city location.

Track the satellite on the map from your city or location and see movement details for azimuth, elevation, latitude, longitude, range, height, and movement on the map or in text.







IsCatalogInMostPopularTable: catalog: 49211, numindb: 9
Update: records affected: 1



GetName: 49211 ONEWEB-0345

Hit Count: updated at: Thu, 28 Oct 2021 11:26:42 GMT